Regional Weather Roundup
Issued by NWS

Home | Current Version | Previous Version | Text Only | Print | Product List | Glossary Off
Versions: 1 2 3 4 5 6 7 8 9 10 11 12 13 14 15 16 17 18 19 20 21 22 23 24 25 26 27 28 29 30 31 32 33 34 35 36 37 38 39 40 41 42 43 44 45 46 47 48 49 50

000
ASUS43 KMKX 070511
RWRWI

WISCONSIN REGIONAL WEATHER ROUNDUP
NATIONAL WEATHER SERVICE MILWAUKEE/SULLIVAN WI
1200 AM CDT TUE JUL 07 2015

NOTE: "FAIR" INDICATES FEW OR NO CLOUDS BELOW 12,000 FEET WITH NO
SIGNIFICANT WEATHER AND/OR OBSTRUCTIONS TO VISIBILITY.

WIZ001-002-006>008-014>016-023>028-070600-
NORTHWEST WISCONSIN

CITY           SKY/WX    TMP DP  RH WIND       PRES   REMARKS
SUPERIOR ARPT  CLOUDY    57  47  68 N7        30.04F
ASHLAND        CLOUDY    56  46  69 N9        30.03R
HAYWARD        PTCLDY    56  48  74 N8        30.03R
SIREN          PTCLDY    53  48  82 NW3       30.05R
CUMBERLAND     PTCLDY    54  46  76 N10       30.02S
RICE LAKE      PTCLDY    56  50  78 NW5       30.03S
CHETEK         PTCLDY    59  52  77 N6        30.02R
LADYSMITH      PTCLDY    58  55  89 N8        30.01R
EAU CLAIRE     CLOUDY    62  57  83 NW8       29.98R HAZE
MENOMONIE      PTCLDY    60  51  73 NW9G17    30.01R
NEW RICHMOND   MOCLDY    58  47  68 N12       30.04R
OSCEOLA        CLOUDY    59  48  66 N6        30.07R
$$

WIZ003>005-009-010-017-018-070600-
NORTH CENTRAL WISCONSIN

CITY           SKY/WX    TMP DP  RH WIND       PRES   REMARKS
MANITOWISH WTR CLOUDY    56  55  98 N9        29.98S FOG
ARBOR VITAE    MOCLDY    57  55  92 N6        29.96F FOG
WOODRUFF       MOCLDY    57  55  92 N6        29.96F FOG
RHINELANDER    CLOUDY    56  54  93 NW5       29.96S FOG
EAGLE RIVER    CLOUDY    55  55 100 N6        29.95S FOG
LAND O LAKES   CLOUDY    57  54  91 N7        29.96F FOG
PHILLIPS       MOCLDY    54  54 100 N3        29.98S FOG
TOMAHAWK         N/A     53  52  95 NW5       29.97S FOG
MEDFORD        CLEAR     54  54  98 N7        29.96S FOG
MERRILL          N/A     55  55  98 N6        29.95F FOG
$$

WIZ029-030-035-036-043>047-070600-
CENTRAL WISCONSIN

CITY           SKY/WX    TMP DP  RH WIND       PRES   REMARKS
WAUSAU         CLOUDY    59  55  87 N7        29.93S FOG
MOSINEE        PTCLDY    57  55  94 N8        29.95S FOG
MARSHFIELD     CLEAR     58  54  86 N9        29.95S FOG
STEVENS POINT  CLOUDY    58  56  90 N5        29.93S FOG
WAUPACA        CLOUDY    64  59  83 N7        29.91R HAZE
WAUTOMA        CLOUDY    63  59  87 N10       29.91S FOG
WISC RAPIDS    CLOUDY    61  55  81 N7        29.94F HAZE
CAMP DOUGLAS   MOCLDY    58  58 100 NW8       29.94S FOG
$$

WIZ011>013-019>022-031-037>040-048>050-070600-
NORTHEAST WISCONSIN

CITY           SKY/WX    TMP DP  RH WIND       PRES   REMARKS
ANTIGO         CLOUDY    56  55  95 N8        29.94S FOG
SHAWANO        CLOUDY    62  57  83 N8        29.91S HAZE
OCONTO         CLOUDY    58  58 100 N7        29.89R
STURGEON BAY   CLOUDY    61  55  82 N18G25    29.89S
GREEN BAY      CLOUDY    61  56  83 N13       29.89R HAZE
MANITOWOC      LGT RAIN  61  59  93 MISG      29.86R
APPLETON       CLOUDY    61  55  82 N18G24    29.89S FOG
CLINTONVILLE   CLOUDY    61  54  77 N7        29.90S HAZE
OSHKOSH        CLOUDY    63  57  81 N18G24    29.87R HAZE
$$

WIZ032>034-041-042-053>061-070600-
SOUTHWEST WISCONSIN

CITY           SKY/WX    TMP DP  RH WIND       PRES   REMARKS
LA CROSSE      CLOUDY    61  58  90 N7        29.96S FOG
SPARTA         PTCLDY    58  55  91 NW3       29.96S FOG
VIROQUA        MOCLDY    59  57  94 N7        29.96S
BOSCOBEL       CLOUDY    64  56  75 N5        29.93S HAZE
PRAIRIE DU CHI CLOUDY    64  54  69 N7        29.93F HAZE
PLATTEVILLE    CLOUDY    63  59  86 N13G20    29.91S
$$

WIZ056-057-062-063-064-067-068-070600-
SOUTH CENTRAL WISCONSIN

CITY           SKY/WX    TMP DP  RH WIND       PRES   REMARKS
REEDSBURG      CLOUDY    62  57  86 N12       29.92R HAZE
BARABOO/DELLS  CLOUDY    62  56  80 N9G18     29.91S HAZE
LONE ROCK      MOCLDY    63  56  78 N7        29.92R HAZE
MINERAL POINT  CLOUDY    63  59  88 N13G18    29.91R FOG
MADISON        CLOUDY    63  59  87 N12       29.88R
MIDDLETON      CLOUDY    64  61  90 N9        29.90S
WATERTOWN      LGT RAIN  64  64 100 NW16      29.86R
MONROE         CLOUDY    63  61  94 N13G22    29.87S
JANESVILLE     RAIN      68  64  88 NW10      29.85R
$$

WIZ051-052-058>065-066-070>072-070600-
SOUTHEAST WISCONSIN

CITY           SKY/WX    TMP DP  RH WIND       PRES   REMARKS
MILWAUKEE      HVY RAIN  72  68  87 SW15G25   29.83R FOG
WAUKESHA       HVY RAIN  70  68  94 SW14      29.83S
MILWAUKEE/TIMM HVY RAIN  72  68  88 SW12      29.83R
RACINE         LGT RAIN  73  69  87 SW9       29.85S
BURLINGTON     RAIN      69  68  94 SW5       29.85S
KENOSHA        CLOUDY    73  69  87 SW10      29.85F
FOND DU LAC    LGT RAIN  62  60  93 N14       29.87R FOG
SHEBOYGAN      LGT RAIN  62  59  90 N12G23    29.84R
WEST BEND      RAIN      68  63  83 NW8       29.83R
JUNEAU         LGT RAIN  62  61  96 N16       29.86R
$$

LSZ147-162-070600-
LAKE SUPERIOR

STATION/POSITION TIME  TEMP    WIND        PRES    WAVE
                       AIR SEA DIR/SP/G            HT/PER
                 (UTC) (F)     (DEG/KT/KT) (MB)    (FT/S)
W MID LAKE BUOY  0450   46 39  330/ 12/ 12 1015.1F   0
DEVILS ISLAND    0500   57     340/ 15/ 18 1016.4F
PORT WING        0400   59     350/  9/ 13 1017.6R
SAXON HARBOR     0400   61     360/ 17/ 23 1015.2R
$$

LMZ867-665-643>646-070600-
LAKE MICHIGAN

STATION/POSITION TIME  TEMP    WIND        PRES    WAVE
                       AIR SEA DIR/SP/G            HT/PER
                 (UTC) (F)     (DEG/KT/KT) (MB)    (FT/S)
CHAMBERS ISLAND  0400   60     320/ 11/ 16 1011.9R
N MID LAKE BUOY  0450   56 57  320/ 16/ 19 1010.4R   3/ 5
NORTHPORT PIER   0400   60     340/ 17/ 23 1011.2R
SISTER BAY       0444   58     360/ 20/ 25   N/A
ALGOMA LAKESHORE 0411          360/ 11/ 17   N/A
KEWAUNEE LAKESHO 0400   61     350/  9/ 17 1010.1R
SHEBOYGAN LAKESH 0500   60      10/ 18/ 20 1011.0R
PORT WASHINGTON  0400   67      CALM  /  1 1009.8S
ATWATER BUOY     0500   72 60  210/ 16/ 17 1010.9S
MILWAUKEE LAKESH 0400   74     230/ 11/ 13   N/A
KENOSHA   LAKESH 0500   74     230/ 13/ 19 1010.2F
$$

TC  - TEMPERATURE IN CELSIUS
VSB - VISIBILITY IN STATUTE MILES
WCI - WIND CHILL INDEX
HX  - HEAT INDEX



USA.gov is the U.S. government's official web portal to all federal, state and local government web resources and services.